This demonstration page uses our WeatherBlox Daily Observations layout. Learn more.

Left ArrowRight Arrow

44.8408, -93.29828

Hourly Observations for March 11, 2017

Temp ( °F °C ) Dew Point ( °F °C ) Humidity (%) Winds ( mph kmh ) Pressure ( in mb ) Visibility ( mi km ) Precip ( " mm )
12:53 am 00:53 Partly Cloudy 11 -11.7 -12 -24.4 34 34 NNE 8 13 30.63 1037 10 16 0.00 0.00
1:53 am 01:53 Mostly Cloudy 11 -11.7 -13 -25 32 32 NNE 12 19 30.62 1037 10 16 0.00 0.00
2:53 am 02:53 Cloudy 10 -12.2 -12 -24.4 36 36 N 12 19 30.62 1037 10 16 0.00 0.00
3:53 am 03:53 Mostly Cloudy 9 -12.8 -13 -25 36 36 N 7 11 30.63 1037 10 16 0.00 0.00
4:53 am 04:53 Mostly Cloudy 8 -13.3 -12 -24.4 39 39 NNE 9 15 30.64 1038 10 16 0.00 0.00
5:53 am 05:53 Mostly Cloudy 8 -13.3 -11 -23.9 41 41 NE 7 11 30.66 1038 10 16 0.00 0.00
6:53 am 06:53 Mostly Cloudy 8 -13.3 -11 -23.9 41 41 N 7 11 30.68 1039 10 16 0.00 0.00
7:53 am 07:53 Mostly Cloudy 9 -12.8 -11 -23.9 39 39 NNE 7 11 30.68 1039 10 16 0.00 0.00
8:53 am 08:53 Cloudy 9 -12.8 -11 -23.9 39 39 N 8 13 30.69 1039 10 16 0.00 0.00
9:53 am 09:53 Mostly Cloudy 12 -11.1 -11 -23.9 34 34 NNE 9 15 30.68 1039 10 16 0.00 0.00
10:53 am 10:53 Mostly Cloudy 15 -9.4 -13 -25 27 27 NNE 12 19 30.68 1039 10 16 0.00 0.00
11:53 am 11:53 Mostly Cloudy 16 -8.9 -13 -25 26 26 NNW 5 7 30.67 1039 10 16 0.00 0.00
12:53 pm 12:53 Cloudy 18 -7.8 -14 -25.6 23 23 N 9 15 30.66 1038 10 16 0.00 0.00
1:53 pm 13:53 Mostly Sunny 19 -7.2 -15 -26.1 21 21 N 10 17 30.63 1037 10 16 0.00 0.00
2:53 pm 14:53 Partly Cloudy 20 -6.7 -14 -25.6 21 21 N 9 15 30.62 1037 10 16 0.00 0.00
3:53 pm 15:53 Mostly Cloudy 20 -6.7 -13 -25 22 22 Calm 30.61 1037 10 16 0.00 0.00
4:53 pm 16:53 Mostly Cloudy 20 -6.7 -11 -23.9 24 24 NNW 7 11 30.60 1036 10 16 0.00 0.00
5:53 pm 17:53 Mostly Cloudy 20 -6.7 -9 -22.8 27 27 NW 7 11 30.60 1036 10 16 0.00 0.00
6:53 pm 18:53 Mostly Cloudy 20 -6.7 -8 -22.2 28 28 NNW 10 17 30.61 1037 10 16 0.00 0.00
7:53 pm 19:53 Mostly Cloudy 19 -7.2 -8 -22.2 29 29 N 6 9 30.61 1037 10 16 0.00 0.00
8:53 pm 20:53 Partly Cloudy 17 -8.3 -6 -21.1 35 35 NW 5 7 30.60 1036 10 16 0.00 0.00
9:53 pm 21:53 Mostly Clear 16 -8.9 -5 -20.6 38 38 NW 6 9 30.61 1037 10 16 0.00 0.00
10:53 pm 22:53 Clear 16 -8.9 -5 -20.6 38 38 N 3 6 30.58 1036 10 16 0.00 0.00
11:53 pm 23:53 Clear 15 -9.4 -5 -20.6 40 40 N 5 7 30.58 1036 10 16 0.00 0.00

Powered by AerisWeather